Terminal Aerodrome Forecast
Issued by NWS

Current Version | Previous Version | Text Only | Print | Product List | Glossary On
Versions: 1 2 3 4 5 6 7 8 9 10 11 12 13 14 15 16 17 18 19 20 21 22 23 24 25 26 27 28 29 30 31 32 33 34 35 36 37 38 39 40 41 42 43 44 45 46 47 48 49 50
000
FTUS42 KEYW 210300 AAE
TAFMTH
TAF AMD
KMTH 210344Z 2104/2124 VRB06KT 5SM -TSRA BKN030 OVC045CB
     FM210430 VRB06KT P6SM VCTS FEW020 OVC060CB=

USA.gov is the U.S. government's official web portal to all federal, state and local government web resources and services.